Location: Colonial Hills
(40.5656°N, 77.6119°W)
Time: 15:02:11
(UTC+00:00)

X-37B - Pass Details

Date: 04 December 2020
Orbit: 384 x 390 km, 45.0° (Epoch: 02 January)

Event Time Altitude Azimuth Distance (km) Brightness Sun altitude
Rises 23:51:40 0° 291° (WNW) 2,266 5.4 -23.7°
Reaches altitude 10° 23:53:47 10° 298° (WNW) 1,412 4.1 -24.1°
Enters shadow 23:55:06 21° 308° (NW) 919 2.9 -24.3°
